Weather Roundup
Issued by NWS

Home | Current Version | Previous Version | Graphics & Text | Print | Product List | Glossary Off
Versions: 1 2 3 4 5 6 7 8 9 10 11 12 13 14 15 16 17 18 19 20 21 22 23 24 25 26 27 28 29 30 31 32 33 34 35 36 37 38 39 40 41 42 43 44 45 46 47 48 49 50

167
NZUS93 KARX 270710
HRRWXR

CURRENT HOURLY OBSERVATIONS ACROSS
MUCH OF THE UPPER MISSISSIPPI VALLEY
NATIONAL WEATHER SERVICE LA CROSSE WI
200 AM CDT FRI MAY 27 2016


...SOUTHEAST MINNESOTA...


CITY           SKY/WX    TMP DP  RH WIND       PRES   REMARKS
ROCHESTER      CLOUDY    64  59  83 CALM      29.88F
ROCHESTER/MAYO CLOUDY    67  58  71 CALM      29.89R
WINONA         CLOUDY    64  61  88 CALM      29.88R
AUSTIN         CLOUDY    63  57  82 CALM      29.87S
ALBERT LEA     PTCLDY    64  55  72 S5        29.86R
DODGE CENTER   CLOUDY    64  55  72 SW3       29.88S
PRESTON        CLOUDY    63  56  80 CALM      29.89S
OWATONNA       CLOUDY    66  55  68 CALM      29.86F
FARIBAULT      CLOUDY    66  57  72 SE2       29.87S
$$

...ELSEWHERE IN MINNESOTA...


CITY           SKY/WX    TMP DP  RH WIND       PRES   REMARKS
MINNEAPOLIS    CLOUDY    70  53  54 S7        29.85R
INTNL FALLS    CLEAR     51  49  92 CALM      29.80R
DULUTH         CLOUDY    51  47  86 CALM      29.86R
RED WING       CLOUDY    64  61  88 VRB2      29.85R
REDWOOD FALLS  CLOUDY    64  56  75 S5        29.80F
MANKATO        CLOUDY    66  57  72 E6        29.83F
WORTHINGTON    CLOUDY    61  58  90 CALM      29.85F
FAIRMONT       CLOUDY    63  55  77 E7        29.84R
$$

...SOUTHWEST WISCONSIN...


CITY           SKY/WX    TMP DP  RH WIND       PRES   REMARKS
LA CROSSE      CLOUDY    65  61  87 CALM      29.87R
PRAIRIE DU CHI CLOUDY    69  61  76 NW8       29.81F
BOSCOBEL       CLOUDY    64  63  96 CALM      29.83F
LONE ROCK      MOCLDY    63  59  87 CALM      29.84F
PLATTEVILLE    CLOUDY    67  59  73 NW5       29.85S
FORT MC COY    PTCLDY    56  56 100 CALM      29.89R
CAMP DOUGLAS   MOCLDY    57  57 100 CALM      29.87R
MAUSTON-NEW LI PTSUNNY   60  60  98 CALM      29.87R
VIROQUA        FAIR      64  61  88 NW3       29.89R
WIS DELLS      PTCLDY    62  59  90 CALM      29.87S
$$

...ELSEWHERE IN WISCONSIN...


CITY           SKY/WX    TMP DP  RH WIND       PRES   REMARKS
MILWAUKEE      CLOUDY    67  61  81 SE3       29.86S
MADISON        CLOUDY    62  58  86 N3        29.85F
GREEN BAY      CLEAR     61  58  90 CALM      29.86S
EAU CLAIRE     CLOUDY    59  57  93 CALM      29.87R
BLACK RVR FLS  FAIR      57  57 100 CALM      29.87S
MEDFORD        CLOUDY    57  57 100 S3        29.88S
WAUSAU         CLOUDY    61  58  90 E3        29.87R
WIS RAPIDS     PTCLDY    59  56  89 CALM      29.89S
MARSHFIELD     PTCLDY    60  57  89 CALM      29.88R
RICE LAKE      CLOUDY    59  56  91 CALM      29.88R
$$

...NORTHEAST IOWA...


CITY           SKY/WX    TMP DP  RH WIND       PRES   REMARKS
WATERLOO       CLOUDY    65  58  78 CALM      29.85S
DUBUQUE        CLOUDY    67  60  78 N7        29.86R
DECORAH        MOCLDY    64  61  88 CALM      29.87S
MASON CITY     CLOUDY    62  58  86 E5        29.86S
CHARLES CITY   CLOUDY    64  61  88 NE7       29.86S
OELWEIN        CLOUDY    64  61  88 NW9       29.83F
$$

...ELSEWHERE IN IOWA...


CITY           SKY/WX    TMP DP  RH WIND       PRES   REMARKS
DES MOINES     CLOUDY    64  59  83 SW9       29.78F
IOWA CITY      CLOUDY    66  60  81 S10       29.90R
FORT DODGE     CLOUDY    64  54  68 S6        29.83S
MARSHALLTOWN   CLOUDY    65  57  75 SE9       29.81R
CEDAR RAPIDS   LGT RAIN  63  61  93 CALM      29.85R
$$

...NORTHERN ILLINOIS...


CITY           SKY/WX    TMP DP  RH WIND       PRES   REMARKS
CHICAGO-OHARE  CLOUDY    71  67  87 S7        29.89R
CHICAGO-MIDWAY CLOUDY    72  65  78 S9        29.90R
MOLINE         CLOUDY    71  59  65 SW6       29.85S
ROCKFORD       CLOUDY    68  64  87 CALM      29.88S
PEORIA         CLOUDY    71  65  81 SW14      29.91R
$$

NOTE: "FAIR" INDICATES FEW OR NO CLOUDS BELOW 12,000 FEET WITH NO
SIGNIFICANT WEATHER AND/OR OBSTRUCTIONS TO VISIBILITY. WIND
SPEEDS ARE IN MILES-PER-HOUR.




USA.gov is the U.S. government's official web portal to all federal, state and local government web resources and services.